Location: Carrières
(48.9495°N, 2.0407°E)
Time: 17:56:45
(UTC+00:00)

SR - Pass Details

Date: 17 April 2024
Orbit: 579 x 860 km, 66.7° (Epoch: 22 May)

Event Time Altitude Azimuth Distance (km) Brightness Sun altitude
Exits shadow 02:27:50 41° 188° (S) 1,145 ? -21.2°
Maximum altitude 02:29:41 67° 121° (ESE) 844 ? -21.0°
Drops below altitude 10° 02:34:48 10° 40° (NE) 2,245 ? -20.4°
Sets 02:37:05 0° 38° (NE) 3,126 ? -20.2°
